This demonstration page uses our WeatherBlox Daily Observations layout. Learn more.

Left ArrowRight Arrow

39.01783, -85.05884

Hourly Observations for August 17, 2020

Temp ( °F °C ) Dew Point ( °F °C ) Humidity (%) Winds ( mph kmh ) Pressure ( in mb ) Visibility ( mi km ) Precip ( " mm )
12:52 am 00:52 Clear 70 21.1 59 15 68 68 NW 5 7 29.98 1015 10 16.0934 0 0
1:52 am 01:52 Clear 67 19.4 59 15 76 76 NW 7 11 29.99 1016 10 16.0934 0 0
2:52 am 02:52 Clear 65 18.3 58 14.4 78 78 WNW 5 7 29.99 1016 10 16.0934 0 0
3:52 am 03:52 Clear 65 18.3 58 14.4 78 78 WNW 5 7 30 1016 10 16.0934 0 0
4:52 am 04:52 Clear 63 17.2 57 13.9 81 81 WSW 3 6 30.01 1016 10 16.0934 0 0
5:52 am 05:52 Partly Cloudy 61 16.1 58 14.4 90 90 W 5 7 30.01 1016 10 16.0934 0 0
6:52 am 06:52 Mostly Clear 61 16.1 58 14.4 90 90 W 3 6 30.01 1016 10 16.0934 0 0
7:52 am 07:52 Mostly Sunny 63 17.2 60 15.6 90 90 Calm 30.01 1016 10 16.0934 0 0
8:52 am 08:52 Mostly Sunny 72 22.2 60 15.6 66 66 Calm 30.02 1017 10 16.0934 0 0
9:52 am 09:52 Mostly Sunny 75 23.9 62 16.7 64 64 W 5 7 30.02 1017 10 16.0934 0 0
10:52 am 10:52 Mostly Sunny 77 25 62 16.7 60 60 W 7 11 30.02 1017 10 16.0934 0 0
11:52 am 11:52 Mostly Sunny 79 26.1 64 17.8 60 60 W 7 11 30.02 1017 10 16.0934 0 0
12:52 pm 12:52 Mostly Sunny 82 27.8 65 18.3 56 56 W 7 11 30.01 1016 10 16.0934 0 0
1:52 pm 13:52 Mostly Cloudy 84 28.9 65 18.3 53 53 WSW 8 13 30 1016 10 16.0934 0 0
2:52 pm 14:52 Mostly Cloudy 85 29.4 61 16.1 45 45 WNW 14 22 29.99 1016 10 16.0934 0 0
3:52 pm 15:52 Mostly Cloudy 83 28.3 60 15.6 46 46 W 12 19 29.97 1015 10 16.0934 0 0
4:52 pm 16:52 Mostly Cloudy 84 28.9 59 15 43 43 WNW 9 15 29.96 1015 10 16.0934 0 0
5:52 pm 17:52 Mostly Cloudy 85 29.4 59 15 42 42 W 14 22 29.96 1014 10 16.0934 0 0
6:52 pm 18:52 Partly Cloudy 82 27.8 60 15.6 47 47 W 8 13 29.95 1014 10 16.0934 0 0
7:52 pm 19:52 Mostly Cloudy 77 25 62 16.7 60 60 W 5 7 29.95 1014 10 16.0934 0 0
8:52 pm 20:52 Mostly Cloudy 71 21.7 62 16.7 73 73 SW 8 13 29.97 1015 10 16.0934 0.001 0.001
9:52 pm 21:52 Mostly Cloudy 74 23.3 61 16.1 64 64 NNW 5 7 29.97 1015 10 16.0934 0 0
10:52 pm 22:52 Mostly Cloudy 72 22.2 62 16.7 71 71 WNW 3 6 29.97 1015 10 16.0934 0 0
11:52 pm 23:52 Cloudy 69 20.6 63 17.2 81 81 Calm 29.96 1015 10 16.0934 0 0

Powered by AerisWeather